UAL692 LFPG-KLAX

Flight info

Callsign UAL692
Flight time N/A
Altitude 35000
Route ATREX DCT VESAN DCT RATUK DCT SOVAT L613 SANDY DCT OKSAW DCT TEWXI DCT LIPGO DCT REVNU DCT SUNOT/M084F350 DCT 58N020W 60N030W 61N040W 61N050W DCT PIDSO/N0486F350 DCT LOPVI DCT FASSA DCT 58N070W 56N080W 5330N09000W 5030N10000W DCT KU12U DCT KU03S DCT KU81Q DCT KU63O DCT WINEN DCT LAKRR Q73 HAKMN ANJLL4
Aircraft B77W/H-SDE1E2E3FGHIJ2J3J4J5M1RWXY/LB1D1

Departure

Time 2026-05-05 16:31
Airport Charles de Gaulle International Airport (LFPG)

Arrival

Time N/A
Airport Los Angeles International Airport (KLAX)
Time Latitude Longitude Altitude Speed Heading
2026-05-05 14:56 49.00531 2.56102 358 ft 0 kts 168°
2026-05-05 16:05 49.00532 2.56102 358 ft 1 kts 168°
2026-05-05 16:05 49.00546 2.56097 365 ft 2 kts 168°
2026-05-05 16:05 49.00562 2.56092 364 ft 2 kts 168°
2026-05-05 16:05 49.00579 2.56086 363 ft 2 kts 168°
2026-05-05 16:06 49.00589 2.56083 364 ft 2 kts 168°
2026-05-05 16:06 49.00603 2.56080 361 ft 1 kts 207°
2026-05-05 16:06 49.00611 2.56089 367 ft 1 kts 251°
2026-05-05 16:06 49.00612 2.56092 367 ft 0 kts 260°
2026-05-05 16:10 49.00612 2.56091 358 ft 1 kts 260°
2026-05-05 16:11 49.00606 2.56041 365 ft 9 kts 259°
2026-05-05 16:11 49.00554 2.55568 360 ft 14 kts 265°
2026-05-05 16:12 49.00547 2.55424 358 ft 13 kts 267°
2026-05-05 16:12 49.00651 2.55241 364 ft 12 kts 338°
2026-05-05 16:13 49.00901 2.55132 366 ft 12 kts 344°
2026-05-05 16:13 49.00985 2.55096 366 ft 13 kts 344°
2026-05-05 16:13 49.01069 2.55059 361 ft 13 kts 344°
2026-05-05 16:14 49.01237 2.54985 366 ft 13 kts 344°
2026-05-05 16:14 49.01406 2.54916 366 ft 13 kts 348°
2026-05-05 16:15 49.01580 2.54885 366 ft 13 kts 354°
2026-05-05 16:15 49.01753 2.54865 362 ft 12 kts 355°
2026-05-05 16:16 49.01925 2.54846 364 ft 12 kts
2026-05-05 16:16 49.02019 2.54686 362 ft 12 kts 266°
2026-05-05 16:17 49.02007 2.54422 365 ft 12 kts 265°
2026-05-05 16:17 49.01999 2.54290 365 ft 12 kts 263°
2026-05-05 16:18 49.01908 2.54074 366 ft 12 kts 244°
2026-05-05 16:18 49.01891 2.53945 365 ft 12 kts 264°
2026-05-05 16:18 49.01876 2.53682 365 ft 12 kts 265°
2026-05-05 16:19 49.01868 2.53550 363 ft 12 kts 265°
2026-05-05 16:19 49.01862 2.53420 365 ft 12 kts 266°
2026-05-05 16:19 49.01850 2.53155 359 ft 12 kts 266°
2026-05-05 16:20 49.01834 2.52891 359 ft 12 kts 265°
2026-05-05 16:20 49.01820 2.52626 362 ft 12 kts 265°
2026-05-05 16:21 49.01771 2.52390 366 ft 13 kts 207°
2026-05-05 16:22 49.01697 2.52016 359 ft 13 kts 265°
2026-05-05 16:22 49.01681 2.51744 361 ft 13 kts 265°
2026-05-05 16:23 49.01665 2.51443 355 ft 14 kts 265°
2026-05-05 16:23 49.01657 2.51292 362 ft 14 kts 265°
2026-05-05 16:23 49.01640 2.50988 361 ft 14 kts 265°
2026-05-05 16:24 49.01632 2.50836 359 ft 14 kts 265°
2026-05-05 16:24 49.01624 2.50685 355 ft 14 kts 265°
2026-05-05 16:24 49.01607 2.50381 358 ft 14 kts 265°
2026-05-05 16:25 49.01599 2.50229 362 ft 14 kts 266°
2026-05-05 16:25 49.01571 2.49931 364 ft 14 kts 233°
2026-05-05 16:25 49.01477 2.49900 358 ft 14 kts 175°
2026-05-05 16:26 49.01414 2.50144 364 ft 14 kts 86°
2026-05-05 16:26 49.01467 2.50416 359 ft 14 kts 19°
2026-05-05 16:27 49.01566 2.50436 363 ft 14 kts 16°
2026-05-05 16:27 49.01616 2.50554 359 ft 14 kts 82°
2026-05-05 16:27 49.01626 2.50705 355 ft 14 kts 86°
2026-05-05 16:27 49.01633 2.50855 359 ft 14 kts 85°
2026-05-05 16:28 49.01641 2.51007 361 ft 14 kts 85°
2026-05-05 16:28 49.01649 2.51154 357 ft 13 kts 85°
2026-05-05 16:28 49.01692 2.51260 360 ft 13 kts 19°
2026-05-05 16:28 49.01782 2.51267 359 ft 13 kts 355°
2026-05-05 16:29 49.01870 2.51255 365 ft 10 kts 355°
2026-05-05 16:29 49.01932 2.51251 363 ft 7 kts
2026-05-05 16:29 49.01934 2.51252 363 ft 0 kts
2026-05-05 16:30 49.01945 2.51253 361 ft 6 kts
2026-05-05 16:30 49.02015 2.51320 365 ft 19 kts 50°
2026-05-05 16:30 49.02071 2.51491 367 ft 14 kts 82°
2026-05-05 16:30 49.02072 2.51502 366 ft 0 kts 83°
2026-05-05 16:31 49.02092 2.51835 364 ft 72 kts 85°
2026-05-05 16:31 49.02161 2.52997 362 ft 148 kts 84°
2026-05-05 16:31 49.02328 2.54845 467 ft 199 kts 79°
2026-05-05 16:31 49.02538 2.57029 1143 ft 211 kts 80°
2026-05-05 16:32 49.02749 2.59196 2311 ft 201 kts 79°
2026-05-05 16:32 49.03011 2.61298 3267 ft 205 kts 76°
2026-05-05 16:32 49.03342 2.63483 3987 ft 218 kts 74°
2026-05-05 16:32 49.03794 2.65732 4821 ft 225 kts 69°
2026-05-05 16:33 49.04398 2.67965 5632 ft 230 kts 70°
2026-05-05 16:33 49.04816 2.70327 6489 ft 232 kts 81°
2026-05-05 16:33 49.04905 2.72744 7342 ft 234 kts 92°
2026-05-05 16:33 49.05070 2.75250 8200 ft 241 kts 64°
2026-05-05 16:34 49.06158 2.77301 8720 ft 265 kts 33°
2026-05-05 16:34 49.07916 2.78132 8795 ft 278 kts 359°
2026-05-05 16:34 49.09797 2.77330 8866 ft 288 kts 334°
2026-05-05 16:34 49.11544 2.75740 9050 ft 296 kts 330°
2026-05-05 16:35 49.13316 2.74099 9709 ft 300 kts 332°
2026-05-05 16:35 49.15160 2.72561 10399 ft 303 kts 335°
2026-05-05 16:35 49.17068 2.71143 11070 ft 306 kts 338°
2026-05-05 16:35 49.19030 2.69823 11702 ft 311 kts 339°
2026-05-05 16:36 49.21044 2.68564 12366 ft 314 kts 340°
2026-05-05 16:36 49.23097 2.67346 13019 ft 318 kts 341°
2026-05-05 16:36 49.25177 2.66155 13656 ft 322 kts 341°
2026-05-05 16:36 49.27298 2.64968 14254 ft 325 kts 342°
2026-05-05 16:37 49.29441 2.63786 14842 ft 329 kts 342°
2026-05-05 16:37 49.31606 2.62601 15404 ft 333 kts 342°
2026-05-05 16:37 49.33806 2.61400 16010 ft 337 kts 341°
2026-05-05 16:37 49.36027 2.60191 16605 ft 341 kts 341°
2026-05-05 16:38 49.38278 2.58966 17180 ft 345 kts 341°
2026-05-05 16:38 49.40554 2.57728 17811 ft 349 kts 341°
2026-05-05 16:38 49.42848 2.56478 18387 ft 353 kts 341°
2026-05-05 16:38 49.45173 2.55210 18923 ft 355 kts 341°
2026-05-05 16:39 49.47512 2.53934 19502 ft 357 kts 341°
2026-05-05 16:39 49.49863 2.52650 20080 ft 359 kts 341°
2026-05-05 16:39 49.52224 2.51359 20648 ft 362 kts 341°
2026-05-05 16:39 49.54610 2.50053 21197 ft 365 kts 341°
2026-05-05 16:40 49.57020 2.48733 21671 ft 372 kts 341°
2026-05-05 16:40 49.59496 2.47375 22006 ft 382 kts 341°
2026-05-05 16:40 49.62022 2.45989 22437 ft 389 kts 341°
2026-05-05 16:40 49.64582 2.44582 23013 ft 391 kts 341°
2026-05-05 16:41 49.67148 2.43169 23555 ft 393 kts 341°
2026-05-05 16:41 49.69730 2.41746 24018 ft 396 kts 341°
2026-05-05 16:41 49.72336 2.40308 24479 ft 398 kts 341°
2026-05-05 16:41 49.74956 2.38861 24933 ft 401 kts 341°
2026-05-05 16:42 49.77593 2.37404 25392 ft 404 kts 341°
2026-05-05 16:42 49.80243 2.35923 25836 ft 406 kts 340°
2026-05-05 16:42 49.82893 2.34401 26298 ft 409 kts 340°
2026-05-05 16:42 49.85570 2.32846 26785 ft 411 kts 340°
2026-05-05 16:43 49.88240 2.31291 27269 ft 414 kts 340°
2026-05-05 16:43 49.90973 2.29698 27766 ft 418 kts 340°
2026-05-05 16:43 49.93671 2.28128 28201 ft 421 kts 340°
2026-05-05 16:43 49.96424 2.26526 28683 ft 423 kts 340°
2026-05-05 16:44 49.99183 2.24920 29128 ft 426 kts 340°
2026-05-05 16:44 50.01972 2.23297 29544 ft 428 kts 340°
2026-05-05 16:44 50.04768 2.21666 29956 ft 431 kts 340°
2026-05-05 16:44 50.07583 2.20022 30260 ft 433 kts 340°
2026-05-05 16:45 50.10416 2.18366 30563 ft 436 kts 340°
2026-05-05 16:45 50.13262 2.16700 30852 ft 439 kts 340°
2026-05-05 16:45 50.16126 2.15022 31194 ft 440 kts 340°
2026-05-05 16:45 50.18989 2.13341 31664 ft 438 kts 340°
2026-05-05 16:46 50.21838 2.11666 32019 ft 438 kts 340°
2026-05-05 16:46 50.24695 2.09985 32190 ft 441 kts 340°
2026-05-05 16:46 50.30498 2.06565 32344 ft 451 kts 340°
2026-05-05 16:47 50.36312 2.02616 32425 ft 461 kts 330°
2026-05-05 16:47 50.41622 1.96811 32560 ft 470 kts 319°
2026-05-05 16:48 50.44086 1.93444 32748 ft 471 kts 318°
2026-05-05 16:48 50.46536 1.90027 32982 ft 472 kts 317°
2026-05-05 16:48 50.48992 1.86600 33195 ft 473 kts 318°
2026-05-05 16:48 50.51459 1.83181 33394 ft 474 kts 318°
2026-05-05 16:49 50.53945 1.79758 33562 ft 476 kts 318°
2026-05-05 16:49 50.56443 1.76331 33713 ft 477 kts 318°
2026-05-05 16:49 50.58949 1.72894 33873 ft 479 kts 318°
2026-05-05 16:49 50.61455 1.69452 34036 ft 478 kts 318°
2026-05-05 16:50 50.63966 1.65997 34163 ft 479 kts 318°
2026-05-05 16:50 50.66469 1.62544 34308 ft 480 kts 317°
2026-05-05 16:50 50.68985 1.59068 34439 ft 481 kts 317°
2026-05-05 16:50 50.71497 1.55590 34566 ft 482 kts 317°
2026-05-05 16:51 50.74019 1.52094 34689 ft 483 kts 317°
2026-05-05 16:51 50.76541 1.48593 34784 ft 484 kts 317°
2026-05-05 16:51 50.81620 1.41533 34899 ft 487 kts 317°
2026-05-05 16:52 50.86695 1.34464 34912 ft 485 kts 317°
2026-05-05 16:52 50.91756 1.27392 34924 ft 484 kts 317°
2026-05-05 16:53 50.96788 1.20337 34931 ft 482 kts 317°
2026-05-05 16:53 51.01798 1.13295 34936 ft 481 kts 317°
2026-05-05 16:54 51.06218 1.05400 34937 ft 477 kts 301°
2026-05-05 16:54 51.08791 0.97669 34937 ft 474 kts 289°
2026-05-05 16:55 51.11150 0.87899 34938 ft 474 kts 289°
2026-05-05 16:55 51.13485 0.78072 34936 ft 474 kts 289°
2026-05-05 16:56 51.14659 0.73182 35054 ft 474 kts 289°
2026-05-05 16:56 51.15844 0.68272 35077 ft 473 kts 289°
2026-05-05 16:56 51.18210 0.58511 35122 ft 472 kts 289°
2026-05-05 16:57 51.20572 0.48751 35131 ft 471 kts 289°
2026-05-05 16:57 51.22917 0.39008 35132 ft 469 kts 289°
2026-05-05 16:58 51.25243 0.29299 35118 ft 468 kts 289°
2026-05-05 16:58 51.27556 0.19595 34937 ft 467 kts 289°
2026-05-05 16:59 51.29843 0.09958 34976 ft 467 kts 289°
2026-05-05 16:59 51.32137 0.00250 34964 ft 467 kts 289°
2026-05-05 17:00 51.34437 -0.09528 34985 ft 467 kts 289°
2026-05-05 17:00 51.36699 -0.19187 34955 ft 467 kts 289°
2026-05-05 17:01 51.38984 -0.28991 34945 ft 466 kts 289°
2026-05-05 17:01 51.41225 -0.38649 34940 ft 466 kts 289°
2026-05-05 17:02 51.43473 -0.48383 34941 ft 466 kts 288°
2026-05-05 17:02 51.45710 -0.58110 34939 ft 465 kts 288°
2026-05-05 17:03 51.47940 -0.67853 34941 ft 465 kts 288°
2026-05-05 17:03 51.50161 -0.77604 34940 ft 466 kts 288°
2026-05-05 17:04 51.52383 -0.87403 34964 ft 468 kts 288°
2026-05-05 17:04 51.54602 -0.97234 34969 ft 469 kts 288°
2026-05-05 17:05 51.56820 -1.07106 34968 ft 470 kts 288°
2026-05-05 17:05 51.59030 -1.16988 34970 ft 470 kts 288°
2026-05-05 17:06 51.61232 -1.26883 34966 ft 470 kts 288°
2026-05-05 17:06 51.63424 -1.36781 34965 ft 469 kts 288°
2026-05-05 17:07 51.65604 -1.46669 34966 ft 469 kts 288°
2026-05-05 17:07 51.67773 -1.56557 34968 ft 468 kts 288°
2026-05-05 17:08 51.69937 -1.66453 34967 ft 467 kts 288°
2026-05-05 17:08 51.72611 -1.75997 34979 ft 468 kts 295°
2026-05-05 17:09 51.75573 -1.85331 34978 ft 467 kts 295°
2026-05-05 17:09 51.78482 -1.94687 34975 ft 466 kts 295°
2026-05-05 17:10 51.81397 -2.04020 34998 ft 466 kts 298°
2026-05-05 17:10 51.84787 -2.12933 35000 ft 465 kts 301°
2026-05-05 17:11 51.88236 -2.21769 34996 ft 464 kts 301°
2026-05-05 17:11 51.91636 -2.30561 34982 ft 463 kts 300°
2026-05-05 17:12 51.95029 -2.39427 34995 ft 463 kts 300°
2026-05-05 17:12 51.98427 -2.48360 34995 ft 463 kts 300°
2026-05-05 17:13 52.01778 -2.57206 35000 ft 463 kts 300°
2026-05-05 17:13 52.05150 -2.66133 34982 ft 464 kts 300°
2026-05-05 17:14 52.08518 -2.75080 35003 ft 464 kts 300°
2026-05-05 17:14 52.11889 -2.84064 35000 ft 465 kts 301°
2026-05-05 17:15 52.15253 -2.93063 34987 ft 466 kts 301°
2026-05-05 17:15 52.18615 -3.02086 35009 ft 466 kts 301°
2026-05-05 17:16 52.21976 -3.11142 35012 ft 466 kts 301°
2026-05-05 17:16 52.25325 -3.20197 34992 ft 466 kts 301°
2026-05-05 17:17 52.28663 -3.29255 34993 ft 466 kts 301°
2026-05-05 17:17 52.31998 -3.38336 35011 ft 465 kts 301°
2026-05-05 17:18 52.35310 -3.47385 35015 ft 464 kts 301°
2026-05-05 17:18 52.38621 -3.56466 35015 ft 463 kts 301°
2026-05-05 17:19 52.41914 -3.65530 34993 ft 463 kts 301°
2026-05-05 17:19 52.45198 -3.74603 35015 ft 462 kts 300°
2026-05-05 17:20 52.48445 -3.83605 35020 ft 461 kts 300°
2026-05-05 17:20 52.51706 -3.92679 35020 ft 460 kts 300°
2026-05-05 17:21 52.54950 -4.01738 35006 ft 460 kts 300°
2026-05-05 17:22 52.59788 -4.15308 35007 ft 458 kts 299°
2026-05-05 17:22 52.63004 -4.24370 35027 ft 458 kts 299°
2026-05-05 17:23 52.66208 -4.33431 35036 ft 457 kts 299°
2026-05-05 17:23 52.69406 -4.42508 35038 ft 457 kts 299°
2026-05-05 17:24 52.72574 -4.51536 35021 ft 458 kts 299°
2026-05-05 17:24 52.75760 -4.60644 35045 ft 458 kts 299°
2026-05-05 17:25 52.78936 -4.69757 35048 ft 459 kts 298°
2026-05-05 17:25 52.82119 -4.78925 35054 ft 459 kts 298°
2026-05-05 17:26 52.85289 -4.88090 35055 ft 460 kts 298°
2026-05-05 17:26 52.88465 -4.97302 35043 ft 460 kts 298°
2026-05-05 17:27 52.91627 -5.06511 35047 ft 460 kts 298°
2026-05-05 17:27 52.94774 -5.15710 35052 ft 459 kts 298°
2026-05-05 17:28 52.97911 -5.24915 35057 ft 459 kts 298°
2026-05-05 17:28 53.01053 -5.34169 35061 ft 458 kts 298°
2026-05-05 17:29 53.04262 -5.43296 35057 ft 458 kts 303°
2026-05-05 17:29 53.08245 -5.51549 35060 ft 458 kts 309°
2026-05-05 17:30 53.12353 -5.59688 35065 ft 458 kts 308°
2026-05-05 17:30 53.16393 -5.67780 35064 ft 458 kts 308°
2026-05-05 17:31 53.20446 -5.75983 35067 ft 457 kts 308°
2026-05-05 17:31 53.24487 -5.84210 35068 ft 457 kts 308°
2026-05-05 17:32 53.28518 -5.92445 35070 ft 457 kts 308°
2026-05-05 17:32 53.32514 -6.00634 35073 ft 457 kts 308°
2026-05-05 17:33 53.36521 -6.08869 35076 ft 457 kts 308°
2026-05-05 17:33 53.40531 -6.17140 35074 ft 457 kts 308°
2026-05-05 17:34 53.44532 -6.25417 35078 ft 456 kts 308°
2026-05-05 17:34 53.48514 -6.33684 35077 ft 456 kts 307°
2026-05-05 17:35 53.52495 -6.41977 35073 ft 456 kts 307°
2026-05-05 17:35 53.56476 -6.50295 35069 ft 455 kts 307°
2026-05-05 17:36 53.60435 -6.58596 35069 ft 455 kts 307°
2026-05-05 17:36 53.64391 -6.66920 35066 ft 455 kts 307°
2026-05-05 17:37 53.68346 -6.75267 35065 ft 455 kts 307°
2026-05-05 17:37 53.72293 -6.83626 35063 ft 455 kts 307°
2026-05-05 17:38 53.76233 -6.92000 35066 ft 455 kts 307°
2026-05-05 17:38 53.80165 -7.00383 35069 ft 455 kts 307°
2026-05-05 17:39 53.84066 -7.08727 35070 ft 454 kts 307°
2026-05-05 17:39 53.87985 -7.17141 35064 ft 454 kts 307°
2026-05-05 17:40 53.91883 -7.25535 35074 ft 454 kts 306°
2026-05-05 17:40 53.95787 -7.33972 35071 ft 454 kts 306°
2026-05-05 17:41 53.99680 -7.42412 35069 ft 453 kts 306°
2026-05-05 17:41 54.03556 -7.50846 35074 ft 453 kts 306°
2026-05-05 17:42 54.07426 -7.59295 35075 ft 452 kts 306°
2026-05-05 17:42 54.11271 -7.67717 35078 ft 452 kts 306°
2026-05-05 17:43 54.15127 -7.76192 35076 ft 452 kts 306°
2026-05-05 17:43 54.18342 -7.83282 35081 ft 451 kts 306°
2026-05-05 17:44 54.22176 -7.91760 35090 ft 451 kts 306°
2026-05-05 17:44 54.25978 -8.00201 35088 ft 451 kts 306°
2026-05-05 17:45 54.29806 -8.08723 35096 ft 451 kts 306°
2026-05-05 17:45 54.33618 -8.17241 35099 ft 451 kts 306°
2026-05-05 17:46 54.37441 -8.25813 35097 ft 451 kts 306°
2026-05-05 17:46 54.41230 -8.34338 35103 ft 451 kts 305°
2026-05-05 17:47 54.45040 -8.42941 35103 ft 450 kts 305°
2026-05-05 17:47 54.48801 -8.51461 35106 ft 449 kts 305°
2026-05-05 17:48 54.52578 -8.60046 35105 ft 449 kts 305°
2026-05-05 17:48 54.56331 -8.68609 35110 ft 449 kts 305°
2026-05-05 17:49 54.60092 -8.77218 35098 ft 448 kts 305°
2026-05-05 17:49 54.63839 -8.85825 35122 ft 448 kts 305°
2026-05-05 17:50 54.67562 -8.94406 35125 ft 448 kts 305°
2026-05-05 17:50 54.71303 -9.03061 35115 ft 448 kts 305°
2026-05-05 17:51 54.75022 -9.11692 35118 ft 448 kts 304°
2026-05-05 17:51 54.78744 -9.20361 35119 ft 448 kts 304°
2026-05-05 17:52 54.82450 -9.29025 35141 ft 448 kts 304°
2026-05-05 17:52 54.86130 -9.37656 35125 ft 448 kts 304°
2026-05-05 17:53 54.89829 -9.46364 35133 ft 448 kts 304°
2026-05-05 17:53 54.93519 -9.55080 35138 ft 448 kts 304°
2026-05-05 17:54 54.97202 -9.63810 35140 ft 447 kts 304°
2026-05-05 17:54 55.00885 -9.72571 35141 ft 447 kts 304°
2026-05-05 17:55 55.04557 -9.81339 35142 ft 447 kts 304°
2026-05-05 17:55 55.08204 -9.90075 35144 ft 447 kts 304°
2026-05-05 17:56 55.11862 -9.98870 35144 ft 447 kts 304°
2026-05-05 17:56 55.15513 -10.07681 35149 ft 447 kts 304°
2026-05-05 17:57 55.19155 -10.16500 35147 ft 447 kts 304°
2026-05-05 17:57 55.22768 -10.25280 35146 ft 447 kts 304°
2026-05-05 17:58 55.26393 -10.34120 35148 ft 447 kts 304°
2026-05-05 17:58 55.30013 -10.42981 35152 ft 447 kts 304°
2026-05-05 17:59 55.33634 -10.51876 35149 ft 447 kts 303°
2026-05-05 17:59 55.37240 -10.60766 35153 ft 447 kts 303°
2026-05-05 18:00 55.40817 -10.69618 35150 ft 447 kts 303°
2026-05-05 18:00 55.44415 -10.78553 35155 ft 447 kts 303°
2026-05-05 18:01 55.48000 -10.87488 35156 ft 447 kts 303°
2026-05-05 18:01 55.51579 -10.96439 35157 ft 447 kts 303°
2026-05-05 18:02 55.55160 -11.05430 35151 ft 447 kts 303°
2026-05-05 18:02 55.58729 -11.14424 35159 ft 447 kts 303°
2026-05-05 18:03 55.62296 -11.23445 35161 ft 447 kts 303°
2026-05-05 18:03 55.65847 -11.32457 35153 ft 447 kts 303°
2026-05-05 18:04 55.69402 -11.41514 35157 ft 447 kts 303°
2026-05-05 18:04 55.72927 -11.50528 35160 ft 447 kts 303°
2026-05-05 18:05 55.76468 -11.59618 35158 ft 448 kts 303°
2026-05-05 18:05 55.80002 -11.68722 35160 ft 448 kts 303°
2026-05-05 18:06 55.83533 -11.77850 35157 ft 448 kts 303°
2026-05-05 18:06 55.87061 -11.87006 35162 ft 448 kts 303°
2026-05-05 18:07 55.90584 -11.96185 35159 ft 448 kts 303°
2026-05-05 18:07 55.94090 -12.05354 35160 ft 447 kts 303°
2026-05-05 18:08 55.97566 -12.14478 35162 ft 447 kts 303°
2026-05-05 18:08 56.01064 -12.23693 35167 ft 447 kts 302°
2026-05-05 18:09 56.04550 -12.32912 35168 ft 447 kts 302°
2026-05-05 18:09 56.08017 -12.42114 35166 ft 448 kts 302°
2026-05-05 18:10 56.11508 -12.51417 35165 ft 447 kts 302°
2026-05-05 18:10 56.14950 -12.60625 35165 ft 447 kts 302°
2026-05-05 18:11 56.18412 -12.69920 35163 ft 447 kts 302°
2026-05-05 18:11 56.21862 -12.79219 35166 ft 447 kts 302°
2026-05-05 18:12 56.25299 -12.88518 35167 ft 447 kts 302°
2026-05-05 18:12 56.28728 -12.97830 35164 ft 446 kts 302°
2026-05-05 18:13 56.32150 -13.07161 35169 ft 446 kts 302°
2026-05-05 18:13 56.35560 -13.16494 35170 ft 445 kts 302°
2026-05-05 18:14 56.38964 -13.25845 35167 ft 445 kts 302°
2026-05-05 18:14 56.42332 -13.35134 35170 ft 445 kts 302°
2026-05-05 18:15 56.45715 -13.44502 35169 ft 444 kts 302°
2026-05-05 18:15 56.49084 -13.53866 35169 ft 444 kts 301°
2026-05-05 18:16 56.52445 -13.63241 35178 ft 443 kts 301°
2026-05-05 18:16 56.55784 -13.72596 35172 ft 443 kts 301°
2026-05-05 18:17 56.59137 -13.82024 35174 ft 443 kts 301°
2026-05-05 18:17 56.62466 -13.91422 35170 ft 443 kts 301°
2026-05-05 18:18 56.65796 -14.00860 35174 ft 443 kts 301°
2026-05-05 18:18 56.69117 -14.10307 35173 ft 443 kts 301°
2026-05-05 18:19 56.72437 -14.19791 35167 ft 444 kts 301°
2026-05-05 18:19 56.75723 -14.29214 35175 ft 444 kts 301°
2026-05-05 18:20 56.79027 -14.38725 35172 ft 444 kts 301°
2026-05-05 18:20 56.82328 -14.48265 35169 ft 444 kts 301°
2026-05-05 18:21 56.85624 -14.57830 35174 ft 445 kts 301°
2026-05-05 18:21 56.88914 -14.67413 35171 ft 445 kts 301°
2026-05-05 18:22 56.92197 -14.77017 35173 ft 445 kts 301°
2026-05-05 18:22 56.95481 -14.86660 35172 ft 446 kts 301°
2026-05-05 18:23 56.98751 -14.96300 35176 ft 446 kts 301°
2026-05-05 18:23 57.01528 -15.06425 35176 ft 446 kts 292°
2026-05-05 18:24 57.03867 -15.16995 35171 ft 446 kts 292°
2026-05-05 18:24 57.06191 -15.27554 35177 ft 446 kts 292°
2026-05-05 18:25 57.08527 -15.38124 35173 ft 446 kts 292°
2026-05-05 18:25 57.10846 -15.48621 35174 ft 446 kts 292°
2026-05-05 18:26 57.13174 -15.59197 35175 ft 446 kts 292°
2026-05-05 18:26 57.15491 -15.69777 35175 ft 446 kts 292°
2026-05-05 18:27 57.17803 -15.80393 35173 ft 446 kts 292°
2026-05-05 18:27 57.20103 -15.91009 35181 ft 445 kts 292°
2026-05-05 18:28 57.23528 -16.06917 35185 ft 445 kts 292°
2026-05-05 18:28 57.25809 -16.17584 35181 ft 445 kts 292°
2026-05-05 18:29 57.28075 -16.28229 35185 ft 445 kts 292°
2026-05-05 18:29 57.30316 -16.38817 35184 ft 445 kts 292°
2026-05-05 18:30 57.32562 -16.49482 35184 ft 445 kts 292°
2026-05-05 18:30 57.34797 -16.60152 35187 ft 444 kts 292°
2026-05-05 18:31 57.37023 -16.70833 35188 ft 444 kts 292°
2026-05-05 18:31 57.39239 -16.81526 35191 ft 444 kts 292°
2026-05-05 18:32 57.41088 -16.90490 35192 ft 444 kts 292°
2026-05-05 18:32 57.43270 -17.01122 35195 ft 444 kts 292°
2026-05-05 18:33 57.45460 -17.11847 35199 ft 444 kts 292°
2026-05-05 18:33 57.47641 -17.22586 35200 ft 444 kts 292°
2026-05-05 18:34 57.49811 -17.33330 35201 ft 443 kts 292°
2026-05-05 18:34 57.51970 -17.44077 35200 ft 443 kts 292°
2026-05-05 18:35 57.54120 -17.54833 35206 ft 443 kts 292°
2026-05-05 18:35 57.56243 -17.65518 35208 ft 443 kts 292°
2026-05-05 18:36 57.58383 -17.76344 35211 ft 442 kts 292°
2026-05-05 18:36 57.60487 -17.87048 35211 ft 442 kts 292°
2026-05-05 18:37 57.62593 -17.97820 35210 ft 442 kts 292°
2026-05-05 18:37 57.64686 -18.08583 35214 ft 441 kts 292°
2026-05-05 18:38 57.66773 -18.19378 35217 ft 441 kts 292°
2026-05-05 18:38 57.68848 -18.30171 35214 ft 441 kts 292°
2026-05-05 18:39 57.70909 -18.40951 35219 ft 440 kts 292°
2026-05-05 18:39 57.72964 -18.51759 35220 ft 440 kts 292°
2026-05-05 18:40 57.75006 -18.62558 35225 ft 440 kts 292°
2026-05-05 18:40 57.77039 -18.73369 35226 ft 439 kts 292°
2026-05-05 18:41 57.79059 -18.84174 35228 ft 439 kts 292°
2026-05-05 18:41 57.81067 -18.94974 35229 ft 439 kts 292°
2026-05-05 18:42 57.83066 -19.05792 35226 ft 438 kts 292°
2026-05-05 18:42 57.85040 -19.16531 35229 ft 438 kts 292°
2026-05-05 18:43 57.87016 -19.27347 35232 ft 437 kts 292°
2026-05-05 18:43 57.88981 -19.38162 35230 ft 437 kts 292°
2026-05-05 18:44 57.90935 -19.48976 35235 ft 436 kts 292°
2026-05-05 18:44 57.92878 -19.59795 35237 ft 436 kts 292°
2026-05-05 18:45 57.94807 -19.70601 35238 ft 435 kts 292°
2026-05-05 18:45 57.96726 -19.81408 35236 ft 435 kts 292°
2026-05-05 18:46 57.98633 -19.92203 35235 ft 434 kts 292°
2026-05-05 18:46 58.00673 -20.02889 35235 ft 431 kts 298°
2026-05-05 18:47 58.03245 -20.13090 35242 ft 430 kts 298°
2026-05-05 18:47 58.05827 -20.23287 35234 ft 430 kts 298°
2026-05-05 18:48 58.08388 -20.33510 35237 ft 430 kts 298°
2026-05-05 18:48 58.10909 -20.43665 35234 ft 429 kts 298°
2026-05-05 18:49 58.13440 -20.53920 35237 ft 429 kts 298°
2026-05-05 18:49 58.15957 -20.64167 35233 ft 429 kts 298°
2026-05-05 18:50 58.18462 -20.74415 35234 ft 428 kts 298°
2026-05-05 18:50 58.20951 -20.84641 35232 ft 428 kts 298°
2026-05-05 18:51 58.23433 -20.94888 35234 ft 427 kts 298°
2026-05-05 18:51 58.25907 -21.05153 35233 ft 427 kts 297°
2026-05-05 18:52 58.28363 -21.15389 35229 ft 426 kts 297°
2026-05-05 18:52 58.30820 -21.25676 35225 ft 426 kts 297°
2026-05-05 18:53 58.33259 -21.35935 35236 ft 425 kts 297°
2026-05-05 18:53 58.35671 -21.46134 35232 ft 425 kts 297°
2026-05-05 18:54 58.38090 -21.56407 35229 ft 425 kts 297°
2026-05-05 18:54 58.40501 -21.66697 35213 ft 425 kts 297°
2026-05-05 18:55 58.42903 -21.77000 35224 ft 424 kts 297°
2026-05-05 18:55 58.45296 -21.87311 35221 ft 424 kts 297°
2026-05-05 18:56 58.47676 -21.97616 35224 ft 424 kts 297°
2026-05-05 18:56 58.50034 -22.07873 35221 ft 423 kts 297°
2026-05-05 18:57 58.52391 -22.18180 35214 ft 423 kts 297°
2026-05-05 18:57 58.54740 -22.28497 35214 ft 423 kts 297°
2026-05-05 18:58 58.57081 -22.38833 35218 ft 422 kts 296°
2026-05-05 18:58 58.59412 -22.49174 35206 ft 422 kts 296°
2026-05-05 18:59 58.61733 -22.59520 35210 ft 422 kts 296°
2026-05-05 18:59 58.64043 -22.69868 35206 ft 421 kts 296°
2026-05-05 19:00 58.66327 -22.80150 35199 ft 421 kts 296°
2026-05-05 19:00 58.68621 -22.90527 35201 ft 421 kts 296°
2026-05-05 19:01 58.70897 -23.00878 35206 ft 420 kts 296°
2026-05-05 19:01 58.73164 -23.11239 35194 ft 420 kts 296°
2026-05-05 19:02 58.75428 -23.21632 35195 ft 420 kts 296°
2026-05-05 19:02 58.77679 -23.32022 35193 ft 420 kts 296°
2026-05-05 19:03 58.79913 -23.42384 35191 ft 421 kts 296°
2026-05-05 19:03 58.82148 -23.52803 35190 ft 420 kts 295°
2026-05-05 19:04 58.84380 -23.63260 35187 ft 420 kts 295°
2026-05-05 19:04 58.86594 -23.73686 35185 ft 420 kts 295°
2026-05-05 19:05 58.88805 -23.84149 35182 ft 420 kts 295°
2026-05-05 19:05 58.91002 -23.94605 35179 ft 420 kts 295°
2026-05-05 19:06 58.93199 -24.05111 35179 ft 419 kts 295°
2026-05-05 19:06 58.95377 -24.15576 35176 ft 419 kts 295°
2026-05-05 19:07 58.97548 -24.26067 35172 ft 419 kts 295°
2026-05-05 19:07 58.99695 -24.36492 35173 ft 419 kts 295°
2026-05-05 19:08 59.01846 -24.46993 35171 ft 418 kts 295°
2026-05-05 19:08 59.03989 -24.57510 35172 ft 418 kts 295°
2026-05-05 19:09 59.06119 -24.68018 35168 ft 418 kts 294°
2026-05-05 19:09 59.08240 -24.78534 35164 ft 418 kts 294°
2026-05-05 19:10 59.10354 -24.89071 35158 ft 418 kts 294°
2026-05-05 19:10 59.12442 -24.99536 35160 ft 417 kts 294°
2026-05-05 19:11 59.14532 -25.10063 35158 ft 417 kts 294°
2026-05-05 19:11 59.16613 -25.20602 35158 ft 416 kts 294°
2026-05-05 19:12 59.18686 -25.31158 35151 ft 417 kts 294°
2026-05-05 19:12 59.20751 -25.41725 35151 ft 416 kts 294°
2026-05-05 19:13 59.22805 -25.52300 35149 ft 416 kts 294°
2026-05-05 19:13 59.24848 -25.62871 35136 ft 416 kts 294°
2026-05-05 19:14 59.26884 -25.73461 35149 ft 416 kts 294°
2026-05-05 19:14 59.28907 -25.84044 35146 ft 415 kts 294°
2026-05-05 19:15 59.30909 -25.94569 35138 ft 415 kts 294°
2026-05-05 19:15 59.32911 -26.05155 35135 ft 415 kts 293°
2026-05-05 19:16 59.34906 -26.15763 35131 ft 415 kts 293°
2026-05-05 19:16 59.36892 -26.26379 35130 ft 415 kts 293°
2026-05-05 19:17 59.38868 -26.37002 35130 ft 415 kts 293°
2026-05-05 19:17 59.40843 -26.47677 35122 ft 415 kts 293°
2026-05-05 19:18 59.42801 -26.58322 35127 ft 414 kts 293°
2026-05-05 19:18 59.44425 -26.67196 35122 ft 414 kts 293°
2026-05-05 19:19 59.46365 -26.77851 35124 ft 414 kts 293°
2026-05-05 19:19 59.48298 -26.88525 35123 ft 414 kts 293°
2026-05-05 19:20 59.50220 -26.99199 35121 ft 414 kts 292°
2026-05-05 19:20 59.52136 -27.09901 35124 ft 414 kts 292°
2026-05-05 19:21 59.54043 -27.20618 35126 ft 415 kts 292°
2026-05-05 19:21 59.55947 -27.31375 35124 ft 415 kts 292°
2026-05-05 19:22 59.57843 -27.42148 35130 ft 415 kts 292°
2026-05-05 19:22 59.59726 -27.52911 35129 ft 415 kts 292°
2026-05-05 19:23 59.61591 -27.63637 35127 ft 415 kts 292°
2026-05-05 19:23 59.63460 -27.74447 35125 ft 415 kts 292°
2026-05-05 19:24 59.65317 -27.85250 35124 ft 415 kts 292°
2026-05-05 19:24 59.67169 -27.96082 35126 ft 415 kts 292°
2026-05-05 19:25 59.69009 -28.06918 35129 ft 415 kts 292°
2026-05-05 19:25 59.70843 -28.17773 35131 ft 416 kts 291°
2026-05-05 19:26 59.72666 -28.28637 35126 ft 416 kts 291°
2026-05-05 19:26 59.74484 -28.39530 35133 ft 416 kts 291°
2026-05-05 19:27 59.76290 -28.50422 35131 ft 416 kts 291°
2026-05-05 19:27 59.78091 -28.61345 35132 ft 416 kts 291°
2026-05-05 19:28 59.79871 -28.72210 35135 ft 416 kts 291°
2026-05-05 19:28 59.81665 -28.83230 35134 ft 417 kts 291°
2026-05-05 19:29 59.83428 -28.94125 35135 ft 417 kts 291°
2026-05-05 19:29 59.85194 -29.05106 35135 ft 417 kts 291°
2026-05-05 19:30 59.86954 -29.16120 35134 ft 417 kts 291°
2026-05-05 19:30 59.88704 -29.27136 35140 ft 418 kts 291°
2026-05-05 19:31 59.90448 -29.38188 35144 ft 418 kts 290°
2026-05-05 19:31 59.92184 -29.49255 35143 ft 418 kts 290°
2026-05-05 19:32 59.93913 -29.60356 35143 ft 419 kts 290°
2026-05-05 19:32 59.95635 -29.71476 35148 ft 419 kts 290°
2026-05-05 19:33 59.97336 -29.82538 35148 ft 420 kts 290°
2026-05-05 19:33 59.99040 -29.93672 35149 ft 420 kts 290°
2026-05-05 19:34 60.00717 -30.04855 35154 ft 420 kts 289°
2026-05-05 19:35 60.03081 -30.21783 35158 ft 421 kts 289°
2026-05-05 19:35 60.04643 -30.33105 35162 ft 422 kts 289°
2026-05-05 19:36 60.06203 -30.44437 35163 ft 422 kts 289°
2026-05-05 19:36 60.07758 -30.55785 35168 ft 423 kts 288°
2026-05-05 19:37 60.09309 -30.67167 35172 ft 423 kts 288°
2026-05-05 19:37 60.10841 -30.78498 35174 ft 424 kts 288°
2026-05-05 19:38 60.12376 -30.89934 35177 ft 424 kts 288°
2026-05-05 19:38 60.13900 -31.01377 35171 ft 425 kts 288°
2026-05-05 19:39 60.15420 -31.12873 35185 ft 426 kts 288°
2026-05-05 19:39 60.16931 -31.24384 35191 ft 426 kts 288°
2026-05-05 19:40 60.18430 -31.35893 35195 ft 427 kts 288°
2026-05-05 19:40 60.19923 -31.47444 35198 ft 427 kts 288°
2026-05-05 19:41 60.21409 -31.59022 35197 ft 427 kts 288°
2026-05-05 19:41 60.22874 -31.70531 35195 ft 428 kts 288°
2026-05-05 19:42 60.24339 -31.82134 35200 ft 428 kts 287°
2026-05-05 19:42 60.25799 -31.93777 35206 ft 429 kts 287°
2026-05-05 19:43 60.27251 -32.05460 35207 ft 429 kts 287°
2026-05-05 19:43 60.28693 -32.17146 35211 ft 430 kts 287°
2026-05-05 19:44 60.30122 -32.28828 35217 ft 430 kts 287°
2026-05-05 19:44 60.31551 -32.40596 35218 ft 431 kts 287°
2026-05-05 19:45 60.32968 -32.52363 35220 ft 432 kts 287°
2026-05-05 19:45 60.34365 -32.64063 35223 ft 432 kts 287°
2026-05-05 19:46 60.35764 -32.75874 35228 ft 433 kts 287°
2026-05-05 19:46 60.37154 -32.87717 35227 ft 433 kts 287°
2026-05-05 19:47 60.38537 -32.99588 35234 ft 434 kts 287°
2026-05-05 19:47 60.39913 -33.11505 35239 ft 434 kts 286°
2026-05-05 19:48 60.41266 -33.23331 35244 ft 435 kts 286°
2026-05-05 19:48 60.42628 -33.35328 35249 ft 435 kts 286°
2026-05-05 19:49 60.43961 -33.47177 35247 ft 435 kts 286°
2026-05-05 19:49 60.45299 -33.59176 35255 ft 436 kts 286°
2026-05-05 19:50 60.46629 -33.71213 35251 ft 437 kts 286°
2026-05-05 19:50 60.47945 -33.83222 35260 ft 437 kts 286°
2026-05-05 19:51 60.49258 -33.95318 35262 ft 438 kts 285°
2026-05-05 19:51 60.50557 -34.07400 35265 ft 439 kts 285°
2026-05-05 19:52 60.51840 -34.19437 35271 ft 440 kts 285°
2026-05-05 19:52 60.53123 -34.31590 35273 ft 440 kts 285°
2026-05-05 19:53 60.54398 -34.43780 35274 ft 441 kts 285°
2026-05-05 19:53 60.55662 -34.55979 35273 ft 442 kts 285°
2026-05-05 19:54 60.56917 -34.68219 35285 ft 442 kts 285°
2026-05-05 19:54 60.58164 -34.80484 35278 ft 443 kts 285°
2026-05-05 19:55 60.59400 -34.92778 35279 ft 444 kts 284°
2026-05-05 19:55 60.60628 -35.05100 35292 ft 444 kts 284°
2026-05-05 19:56 60.61845 -35.17445 35291 ft 445 kts 284°
2026-05-05 19:56 60.63054 -35.29832 35292 ft 446 kts 284°
2026-05-05 19:57 60.64252 -35.42230 35293 ft 446 kts 284°
2026-05-05 19:57 60.65441 -35.54654 35300 ft 447 kts 284°
2026-05-05 19:58 60.66621 -35.67124 35304 ft 448 kts 284°
2026-05-05 19:58 60.67779 -35.79495 35312 ft 448 kts 283°
2026-05-05 19:59 60.68934 -35.91962 35309 ft 449 kts 283°
2026-05-05 19:59 60.70093 -36.04608 35309 ft 450 kts 283°
2026-05-05 20:00 60.71235 -36.17206 35314 ft 451 kts 283°
2026-05-05 20:00 60.72367 -36.29836 35315 ft 452 kts 283°
2026-05-05 20:01 60.73478 -36.42368 35323 ft 452 kts 283°
2026-05-05 20:01 60.74595 -36.55116 35326 ft 453 kts 282°
2026-05-05 20:02 60.75697 -36.67842 35324 ft 453 kts 282°
2026-05-05 20:02 60.76784 -36.80541 35326 ft 453 kts 282°
2026-05-05 20:03 60.77861 -36.93271 35331 ft 454 kts 282°
2026-05-05 20:03 60.78923 -37.05974 35334 ft 454 kts 282°
2026-05-05 20:04 60.79970 -37.18647 35334 ft 454 kts 282°
2026-05-05 20:04 60.81011 -37.31399 35336 ft 453 kts 282°
2026-05-05 20:05 60.81866 -37.41992 35341 ft 453 kts 282°
2026-05-05 20:05 60.82885 -37.54763 35341 ft 454 kts 282°
2026-05-05 20:06 60.83891 -37.67531 35349 ft 454 kts 282°
2026-05-05 20:06 60.84885 -37.80313 35352 ft 454 kts 282°
2026-05-05 20:07 60.85870 -37.93126 35349 ft 455 kts 281°
2026-05-05 20:07 60.86843 -38.05964 35355 ft 455 kts 281°
2026-05-05 20:08 60.87804 -38.18816 35359 ft 456 kts 281°
2026-05-05 20:08 60.88746 -38.31597 35357 ft 457 kts 281°
2026-05-05 20:09 60.89687 -38.44526 35357 ft 458 kts 281°
2026-05-05 20:09 60.90623 -38.57516 35366 ft 458 kts 281°
2026-05-05 20:10 60.91537 -38.70429 35372 ft 459 kts 281°
2026-05-05 20:10 60.92445 -38.83462 35374 ft 460 kts 281°
2026-05-05 20:11 60.93347 -38.96568 35376 ft 462 kts 281°
2026-05-05 20:11 60.94235 -39.09662 35379 ft 463 kts 280°
2026-05-05 20:12 60.95112 -39.22806 35381 ft 464 kts 280°
2026-05-05 20:12 60.95978 -39.35978 35390 ft 465 kts 280°
2026-05-05 20:13 60.96834 -39.49201 35390 ft 466 kts 279°
2026-05-05 20:13 60.97674 -39.62367 35397 ft 467 kts 279°
2026-05-05 20:14 60.98508 -39.75670 35395 ft 469 kts 279°
2026-05-05 20:14 60.99334 -39.89026 35405 ft 470 kts 279°
2026-05-05 20:15 61.00140 -40.02394 35412 ft 471 kts 278°
2026-05-05 20:15 61.00689 -40.15899 35412 ft 473 kts 276°
2026-05-05 20:16 61.01104 -40.29436 35419 ft 473 kts 275°
2026-05-05 20:16 61.01530 -40.42985 35422 ft 474 kts 276°
2026-05-05 20:17 61.01972 -40.56582 35425 ft 475 kts 276°
2026-05-05 20:17 61.02414 -40.70194 35432 ft 476 kts 275°
2026-05-05 20:18 61.02843 -40.83845 35443 ft 477 kts 275°
2026-05-05 20:18 61.03257 -40.97442 35443 ft 478 kts 275°
2026-05-05 20:19 61.03660 -41.11170 35452 ft 479 kts 275°
2026-05-05 20:19 61.04049 -41.24917 35455 ft 481 kts 275°
2026-05-05 20:20 61.04424 -41.38692 35465 ft 482 kts 274°
2026-05-05 20:20 61.04786 -41.52510 35472 ft 483 kts 274°
2026-05-05 20:21 61.05136 -41.66381 35474 ft 484 kts 274°
2026-05-05 20:21 61.05472 -41.80272 35485 ft 485 kts 274°
2026-05-05 20:22 61.05793 -41.94120 35491 ft 486 kts 274°
2026-05-05 20:22 61.06101 -42.08065 35495 ft 487 kts 274°
2026-05-05 20:23 61.06396 -42.22079 35502 ft 488 kts 273°
2026-05-05 20:23 61.06677 -42.36124 35509 ft 489 kts 273°
2026-05-05 20:24 61.06944 -42.50189 35512 ft 491 kts 273°
2026-05-05 20:24 61.07197 -42.64285 35522 ft 492 kts 272°
2026-05-05 20:25 61.07435 -42.78343 35524 ft 493 kts 272°
2026-05-05 20:25 61.07660 -42.92519 35532 ft 494 kts 272°
2026-05-05 20:26 61.07870 -43.06709 35530 ft 494 kts 272°
2026-05-05 20:26 61.08065 -43.20902 35529 ft 493 kts 272°
2026-05-05 20:27 61.08245 -43.35051 35523 ft 492 kts 271°
2026-05-05 20:27 61.08410 -43.49192 35524 ft 491 kts 271°
2026-05-05 20:28 61.08560 -43.63315 35514 ft 491 kts 271°
2026-05-05 20:28 61.08695 -43.77432 35507 ft 491 kts 271°
2026-05-05 20:29 61.08815 -43.91489 35497 ft 493 kts 271°
2026-05-05 20:29 61.08922 -44.05724 35477 ft 497 kts 271°
2026-05-05 20:30 61.09014 -44.20085 35437 ft 502 kts 270°
2026-05-05 20:30 61.09091 -44.34592 35403 ft 506 kts 270°
2026-05-05 20:31 61.09155 -44.49216 35366 ft 509 kts 270°
2026-05-05 20:31 61.09202 -44.63762 35326 ft 510 kts 270°
2026-05-05 20:32 61.09233 -44.78400 35285 ft 508 kts 270°
2026-05-05 20:32 61.09248 -44.93019 35245 ft 506 kts 270°
2026-05-05 20:33 61.09248 -45.07490 35232 ft 502 kts 269°
2026-05-05 20:33 61.09233 -45.21772 35204 ft 498 kts 269°
2026-05-05 20:34 61.09202 -45.36032 35181 ft 494 kts 269°
2026-05-05 20:34 61.09157 -45.50232 35167 ft 493 kts 269°
2026-05-05 20:35 61.09097 -45.64409 35168 ft 493 kts 269°
2026-05-05 20:35 61.09022 -45.78572 35164 ft 495 kts 268°
2026-05-05 20:36 61.08931 -45.92876 35159 ft 498 kts 268°
2026-05-05 20:36 61.08826 -46.07138 35153 ft 501 kts 268°
2026-05-05 20:37 61.08703 -46.21614 35138 ft 503 kts 268°
2026-05-05 20:37 61.08566 -46.36057 35136 ft 505 kts 268°
2026-05-05 20:38 61.08412 -46.50636 35137 ft 505 kts 267°
2026-05-05 20:38 61.08243 -46.65069 35136 ft 505 kts 267°
2026-05-05 20:39 61.08059 -46.79550 35129 ft 505 kts 267°
2026-05-05 20:39 61.07859 -46.94089 35126 ft 505 kts 266°
2026-05-05 20:40 61.07642 -47.08596 35114 ft 505 kts 266°
2026-05-05 20:40 61.07411 -47.23108 35104 ft 505 kts 266°
2026-05-05 20:41 61.07164 -47.37610 35097 ft 506 kts 266°
2026-05-05 20:41 61.06902 -47.52075 35088 ft 507 kts 266°
2026-05-05 20:42 61.06622 -47.66655 35069 ft 508 kts 265°
2026-05-05 20:42 61.06326 -47.81252 35067 ft 510 kts 265°
2026-05-05 20:43 61.06014 -47.95908 35053 ft 510 kts 265°
2026-05-05 20:43 61.05685 -48.10561 35050 ft 511 kts 265°
2026-05-05 20:44 61.05339 -48.25256 35042 ft 513 kts 265°
2026-05-05 20:44 61.04977 -48.39991 35032 ft 514 kts 265°
2026-05-05 20:45 61.04404 -48.62043 35026 ft 515 kts 264°
2026-05-05 20:45 61.04000 -48.76823 35013 ft 516 kts 264°
2026-05-05 20:46 61.03579 -48.91627 35016 ft 517 kts 264°
2026-05-05 20:46 61.03141 -49.06440 35019 ft 517 kts 264°
2026-05-05 20:47 61.02686 -49.21260 35019 ft 518 kts 264°
2026-05-05 20:47 61.02215 -49.36102 35017 ft 519 kts 264°
2026-05-05 20:48 61.01727 -49.50938 35018 ft 520 kts 264°
2026-05-05 20:48 61.01223 -49.65794 35018 ft 521 kts 263°
2026-05-05 20:49 61.00699 -49.80719 35020 ft 522 kts 263°
2026-05-05 20:49 61.00162 -49.95652 35019 ft 523 kts 263°
2026-05-05 20:50 60.99702 -50.08084 35011 ft 524 kts 263°
2026-05-05 20:50 60.99048 -50.25512 35015 ft 524 kts 263°
2026-05-05 20:51 60.98472 -50.40497 35014 ft 525 kts 263°
2026-05-05 20:51 60.97879 -50.55469 35007 ft 525 kts 263°
2026-05-05 20:52 60.97268 -50.70438 35006 ft 525 kts 262°
2026-05-05 20:52 60.96743 -50.83006 35008 ft 525 kts 262°
2026-05-05 20:53 60.96100 -50.97996 35007 ft 526 kts 262°
2026-05-05 20:53 60.95444 -51.12885 35002 ft 526 kts 262°
2026-05-05 20:54 60.94766 -51.27904 34998 ft 527 kts 262°
2026-05-05 20:54 60.94071 -51.42924 34996 ft 528 kts 262°
2026-05-05 20:55 60.93358 -51.57972 34993 ft 528 kts 261°
2026-05-05 20:55 60.92628 -51.73013 34987 ft 529 kts 261°
2026-05-05 20:56 60.91881 -51.88061 34983 ft 530 kts 261°
2026-05-05 20:56 60.91114 -52.03158 34979 ft 531 kts 261°
2026-05-05 20:57 60.90330 -52.18240 34976 ft 531 kts 261°
2026-05-05 20:57 60.89528 -52.33345 34968 ft 532 kts 261°
2026-05-05 20:58 60.88709 -52.48449 34966 ft 532 kts 260°
2026-05-05 20:58 60.87877 -52.63452 34955 ft 532 kts 260°
2026-05-05 20:59 60.87024 -52.78551 34952 ft 532 kts 260°
2026-05-05 20:59 60.86152 -52.93659 34948 ft 533 kts 260°
2026-05-05 21:00 60.85264 -53.08756 34936 ft 533 kts 259°
2026-05-05 21:00 60.84358 -53.23842 34935 ft 533 kts 259°
2026-05-05 21:01 60.83435 -53.38947 34928 ft 534 kts 259°
2026-05-05 21:01 60.82494 -53.54040 34923 ft 534 kts 259°
2026-05-05 21:02 60.81535 -53.69144 34921 ft 534 kts 259°
2026-05-05 21:02 60.80565 -53.84162 34905 ft 534 kts 259°
2026-05-05 21:03 60.79572 -53.99248 34904 ft 535 kts 258°
2026-05-05 21:03 60.78559 -54.14377 34897 ft 535 kts 258°
2026-05-05 21:04 60.77533 -54.29449 34890 ft 535 kts 258°
2026-05-05 21:04 60.76487 -54.44546 34879 ft 536 kts 258°
2026-05-05 21:05 60.75427 -54.59581 34877 ft 536 kts 258°
2026-05-05 21:05 60.74351 -54.74610 34868 ft 536 kts 258°
2026-05-05 21:06 60.73253 -54.89700 34869 ft 537 kts 257°
2026-05-05 21:06 60.72137 -55.04786 34856 ft 537 kts 257°
2026-05-05 21:07 60.71001 -55.19900 34855 ft 538 kts 257°
2026-05-05 21:07 60.69849 -55.34998 34837 ft 538 kts 257°
2026-05-05 21:08 60.68679 -55.50092 34835 ft 539 kts 257°
2026-05-05 21:08 60.67489 -55.65223 34833 ft 539 kts 257°
2026-05-05 21:09 60.66282 -55.80335 34827 ft 540 kts 256°
2026-05-05 21:09 60.65057 -55.95449 34820 ft 541 kts 256°
2026-05-05 21:10 60.63811 -56.10602 34820 ft 542 kts 256°
2026-05-05 21:10 60.62556 -56.25644 34816 ft 542 kts 256°
2026-05-05 21:11 60.61272 -56.40820 34802 ft 543 kts 256°
2026-05-05 21:11 60.59972 -56.55965 34793 ft 543 kts 256°
2026-05-05 21:12 60.58656 -56.71088 34791 ft 543 kts 255°
2026-05-05 21:12 60.57321 -56.86224 34786 ft 543 kts 255°
2026-05-05 21:13 60.55971 -57.01318 34778 ft 542 kts 255°
2026-05-05 21:13 60.54613 -57.16302 34778 ft 542 kts 255°
2026-05-05 21:14 60.53232 -57.31341 34773 ft 542 kts 255°
2026-05-05 21:14 60.51835 -57.46363 34768 ft 541 kts 254°
2026-05-05 21:15 60.50421 -57.61376 34761 ft 540 kts 254°
2026-05-05 21:15 60.48995 -57.76321 34757 ft 539 kts 254°
2026-05-05 21:16 60.47565 -57.91145 34745 ft 538 kts 253°
2026-05-05 21:16 60.45861 -58.05828 34747 ft 530 kts 246°
2026-05-05 21:17 60.43526 -58.19962 34743 ft 528 kts 245°
2026-05-05 21:17 60.41147 -58.34007 34729 ft 527 kts 245°
2026-05-05 21:18 60.38794 -58.48020 34724 ft 526 kts 245°
2026-05-05 21:18 60.36458 -58.61989 34717 ft 524 kts 245°
2026-05-05 21:19 60.34116 -58.75926 34719 ft 523 kts 245°
2026-05-05 21:19 60.31761 -58.89812 34706 ft 522 kts 245°
2026-05-05 21:20 60.29392 -59.03667 34715 ft 521 kts 245°
2026-05-05 21:20 60.27016 -59.17448 34699 ft 520 kts 245°
2026-05-05 21:21 60.24645 -59.31107 34691 ft 519 kts 245°
2026-05-05 21:21 60.22247 -59.44815 34696 ft 518 kts 245°
2026-05-05 21:22 60.19838 -59.58488 34682 ft 518 kts 245°
2026-05-05 21:22 60.17424 -59.72092 34677 ft 517 kts 245°
2026-05-05 21:23 60.14998 -59.85664 34671 ft 516 kts 245°
2026-05-05 21:23 60.12563 -59.99193 34665 ft 515 kts 245°
2026-05-05 21:24 60.10115 -60.12690 34655 ft 514 kts 245°
2026-05-05 21:24 60.07679 -60.26035 34650 ft 513 kts 245°
2026-05-05 21:25 60.05214 -60.39440 34646 ft 512 kts 245°
2026-05-05 21:25 60.02735 -60.52823 34625 ft 511 kts 245°
2026-05-05 21:26 60.00258 -60.66112 34641 ft 510 kts 245°
2026-05-05 21:26 59.97761 -60.79412 34628 ft 510 kts 245°
2026-05-05 21:27 59.95260 -60.92641 34627 ft 509 kts 245°
2026-05-05 21:27 59.92763 -61.05760 34622 ft 509 kts 245°
2026-05-05 21:28 59.90238 -61.18941 34611 ft 509 kts 245°
2026-05-05 21:28 59.87701 -61.32092 34611 ft 508 kts 245°
2026-05-05 21:29 59.85149 -61.45232 34605 ft 508 kts 245°
2026-05-05 21:29 59.82589 -61.58331 34602 ft 508 kts 245°
2026-05-05 21:30 59.80014 -61.71416 34599 ft 508 kts 245°
2026-05-05 21:30 59.77445 -61.84391 34594 ft 508 kts 245°
2026-05-05 21:31 59.74843 -61.97440 34590 ft 508 kts 245°
2026-05-05 21:31 59.72236 -62.10435 34589 ft 507 kts 245°
2026-05-05 21:32 59.69619 -62.23395 34579 ft 506 kts 245°
2026-05-05 21:32 59.66992 -62.36318 34580 ft 505 kts 245°
2026-05-05 21:33 59.64359 -62.49191 34573 ft 504 kts 244°
2026-05-05 21:33 59.61718 -62.62021 34568 ft 504 kts 244°
2026-05-05 21:34 59.59064 -62.74832 34564 ft 503 kts 244°
2026-05-05 21:34 59.56415 -62.87539 34562 ft 503 kts 244°
2026-05-05 21:35 59.53740 -63.00291 34552 ft 503 kts 244°
2026-05-05 21:35 59.51057 -63.13002 34554 ft 502 kts 244°
2026-05-05 21:36 59.48363 -63.25690 34553 ft 502 kts 244°
2026-05-05 21:36 59.45661 -63.38337 34549 ft 501 kts 244°
2026-05-05 21:37 59.42946 -63.50966 34548 ft 501 kts 244°
2026-05-05 21:37 59.40243 -63.63462 34541 ft 501 kts 244°
2026-05-05 21:38 59.37511 -63.76018 34535 ft 500 kts 244°
2026-05-05 21:38 59.34765 -63.88564 34523 ft 500 kts 244°
2026-05-05 21:39 59.32013 -64.01061 34518 ft 500 kts 244°
2026-05-05 21:39 59.29245 -64.13568 34517 ft 500 kts 244°
2026-05-05 21:40 59.26462 -64.26072 34506 ft 500 kts 244°
2026-05-05 21:40 59.24318 -64.36574 34494 ft 501 kts 247°
2026-05-05 21:41 59.21518 -64.51416 34480 ft 501 kts 247°
2026-05-05 21:41 59.19480 -64.62098 34480 ft 500 kts 247°
2026-05-05 21:42 59.17003 -64.74783 34454 ft 500 kts 246°
2026-05-05 21:42 59.14499 -64.87424 34461 ft 500 kts 246°
2026-05-05 21:43 59.11983 -65.00037 34446 ft 500 kts 246°
2026-05-05 21:43 59.09471 -65.12561 34442 ft 499 kts 246°
2026-05-05 21:44 59.06934 -65.25139 34443 ft 499 kts 246°
2026-05-05 21:44 59.04386 -65.37695 34435 ft 499 kts 246°
2026-05-05 21:45 59.01828 -65.50221 34439 ft 499 kts 246°
2026-05-05 21:45 58.99255 -65.62745 34437 ft 499 kts 246°
2026-05-05 21:46 58.96671 -65.75241 34439 ft 499 kts 246°
2026-05-05 21:46 58.94072 -65.87733 34440 ft 499 kts 246°
2026-05-05 21:47 58.91466 -66.00188 34440 ft 499 kts 245°
2026-05-05 21:47 58.88865 -66.12537 34444 ft 498 kts 245°
2026-05-05 21:48 58.86240 -66.24926 34445 ft 498 kts 245°
2026-05-05 21:48 58.83601 -66.37312 34442 ft 498 kts 245°
2026-05-05 21:49 58.80955 -66.49651 34441 ft 498 kts 245°
2026-05-05 21:49 58.78296 -66.61983 34441 ft 498 kts 245°
2026-05-05 21:50 58.75624 -66.74296 34441 ft 498 kts 245°
2026-05-05 21:50 58.72941 -66.86598 34440 ft 498 kts 245°
2026-05-05 21:51 58.70250 -66.98865 34435 ft 497 kts 245°
2026-05-05 21:51 58.68920 -67.04916 33456 ft 497 kts 245°
2026-05-05 21:51 58.67575 -67.11063 34478 ft 499 kts 245°
2026-05-05 21:52 58.63541 -67.29478 34430 ft 497 kts 245°
2026-05-05 21:53 58.60850 -67.41669 34426 ft 495 kts 244°
2026-05-05 21:53 58.58150 -67.53820 34422 ft 494 kts 244°
2026-05-05 21:54 58.55446 -67.65915 34422 ft 494 kts 244°
2026-05-05 21:54 58.52729 -67.78000 34418 ft 494 kts 244°
2026-05-05 21:55 58.50021 -67.89972 34413 ft 495 kts 244°
2026-05-05 21:55 58.47271 -68.02067 34411 ft 495 kts 244°
2026-05-05 21:56 58.44513 -68.14129 34409 ft 495 kts 244°
2026-05-05 21:56 58.41748 -68.26152 34403 ft 495 kts 244°
2026-05-05 21:57 58.38964 -68.38186 34399 ft 495 kts 244°
2026-05-05 21:57 58.36172 -68.50193 34404 ft 494 kts 243°
2026-05-05 21:58 58.33392 -68.62080 34395 ft 494 kts 243°
2026-05-05 21:58 58.30590 -68.73993 34386 ft 493 kts 243°
2026-05-05 21:59 58.27781 -68.85872 34388 ft 492 kts 243°
2026-05-05 21:59 58.24966 -68.97708 34383 ft 492 kts 243°
2026-05-05 22:00 58.22138 -69.09539 34390 ft 492 kts 243°
2026-05-05 22:00 58.19303 -69.21333 34386 ft 492 kts 243°
2026-05-05 22:01 58.16450 -69.33134 34384 ft 491 kts 243°
2026-05-05 22:01 58.13619 -69.44784 34384 ft 491 kts 243°
2026-05-05 22:02 58.10732 -69.56605 34381 ft 491 kts 243°
2026-05-05 22:02 58.07862 -69.68292 34381 ft 490 kts 243°
2026-05-05 22:03 58.06421 -69.74135 34381 ft 489 kts 243°
2026-05-05 22:03 58.05542 -69.77694 34378 ft 489 kts 243°